Overview Statistics Trail Chart Weather Telemetry Raw packets
 

This is the latest recevied weather packets stored in our database for station/object KC1BRV. If no packets are shown the sender has not sent any weather packets the latest 10 day(s).

<< 46 47 48 49 50 51 52 >>
Time Temp. Humidity Pressure Rain* Wind** Luminosity Snow
1788299822 15.56° C 98% 1019.5 hPa 0 mm - 13 W/m² -
1788299522 15.56° C 98% 1019.5 hPa 0 mm - 10 W/m² -
1788299220 15.56° C 98% 1019.3 hPa 0 mm - 13 W/m² -
1788298914 15.56° C 98% 1019.2 hPa 0 mm - 12 W/m² -
1788298608 16.11° C 98% 1019.2 hPa 0 mm - 14 W/m² -
1788298303 16.11° C 98% 1019.1 hPa 0 mm - 15 W/m² -
1788298003 16.11° C 98% 1019.2 hPa 0 mm - 21 W/m² -
1788297699 16.11° C 98% 1019 hPa 0 mm - 24 W/m² -
1788297393 16.11° C 98% 1019.1 hPa 0 mm - 37 W/m² -
1788297091 16.11° C 98% 1019.1 hPa 0 mm - 42 W/m² -
1788296786 16.11° C 98% 1019 hPa 0 mm - 37 W/m² -
1788296482 16.11° C 98% 1019.2 hPa 0 mm - 27 W/m² -
1788296177 16.11° C 98% 1018.9 hPa 0 mm - 41 W/m² -
1788295877 16.11° C 98% 1018.8 hPa 0 mm - 45 W/m² -
1788295574 16.11° C 98% 1018.8 hPa 0 mm - 66 W/m² -
1788295273 16.11° C 98% 1018.8 hPa 0 mm - 51 W/m² -
1788294973 16.11° C 98% 1018.7 hPa 0 mm - 57 W/m² -
1788294668 16.11° C 98% 1018.7 hPa 0 mm - 72 W/m² -
1788294368 16.11° C 98% 1018.8 hPa 0 mm - 55 W/m² -
1788294064 16.11° C 98% 1018.7 hPa 0 mm - 57 W/m² -
1788293760 16.11° C 98% 1018.9 hPa 0 mm - 75 W/m² -
1788293459 16.11° C 98% 1018.7 hPa 0 mm - 62 W/m² -
1788293153 16.11° C 98% 1018.6 hPa 0 mm - 72 W/m² -
1788292848 16.11° C 98% 1018.8 hPa 0 mm - 66 W/m² -
1788292545 16.11° C 98% 1018.7 hPa 0 mm - 45 W/m² -

* Rain latest hour (hover to see other rain measurements)
** Current wind speed in m/s (hover to see current wind gust speed)